This is the latest recevied weather packets stored in our database for station/object K4CRS-13. If no packets are shown the sender has not sent any weather packets the latest 10 day(s).
| Time | Temp. | Humidity | Pressure | Rain* | Wind** | Luminosity | Snow |
|---|---|---|---|---|---|---|---|
| 1777426368 | 18.89° C | 99% | 1050.3 hPa | 1.78 mm | - | 0 W/m² | - |
| 1777426063 | 18.89° C | 99% | 1050.3 hPa | 1.27 mm | - | 0 W/m² | - |
| 1777425759 | 18.89° C | 99% | 1049.8 hPa | 3.05 mm | - | 0 W/m² | - |
| 1777425453 | 18.89° C | 99% | 1050 hPa | 1.78 mm | - | 0 W/m² | - |
| 1777425150 | 18.89° C | 99% | 1050.5 hPa | 0 mm | - | 0 W/m² | - |
| 1777424846 | 18.89° C | 99% | 1050.7 hPa | 0 mm | - | 0 W/m² | - |
| 1777424541 | 18.89° C | 99% | 1050.9 hPa | 0 mm | - | 0 W/m² | - |
| 1777424238 | 18.89° C | 99% | 1050.9 hPa | 1.27 mm | - | 0 W/m² | - |
| 1777423935 | 18.89° C | 99% | 1050.9 hPa | 6.1 mm | - | 0 W/m² | - |
| 1777423631 | 18.89° C | 99% | 1050.6 hPa | 7.11 mm | - | 0 W/m² | - |
| 1777423326 | 18.89° C | 99% | 1050.4 hPa | 4.32 mm | - | 0 W/m² | - |
| 1777423021 | 18.89° C | 99% | 1051.3 hPa | 0 mm | - | 0 W/m² | - |
| 1777422717 | 18.89° C | 99% | 1051.7 hPa | 0 mm | - | 0 W/m² | - |
| 1777422412 | 18.89° C | 99% | 1051.6 hPa | 0 mm | - | 0 W/m² | - |
| 1777422107 | 18.89° C | 99% | 1051.1 hPa | 0 mm | - | 1 W/m² | - |
| 1777421807 | 18.89° C | 99% | 1050.8 hPa | 0 mm | - | 2 W/m² | - |
| 1777421502 | 18.89° C | 99% | 1050.7 hPa | 0 mm | - | 4 W/m² | - |
| 1777421199 | 18.89° C | 99% | 1050.4 hPa | 0 mm | - | 7 W/m² | - |
| 1777420895 | 18.89° C | 99% | 1049.8 hPa | 0 mm | - | 8 W/m² | - |
| 1777420592 | 18.89° C | 99% | 1049.3 hPa | 1.78 mm | - | 8 W/m² | - |
| 1777420288 | 18.89° C | 99% | 1049.8 hPa | 3.56 mm | - | 7 W/m² | - |
| 1777419983 | 18.89° C | 99% | 1049.6 hPa | 3.05 mm | - | 6 W/m² | - |
| 1777419680 | 18.89° C | 99% | 1049.4 hPa | 6.1 mm | - | 4 W/m² | - |
| 1777419378 | 18.89° C | 99% | 1050.1 hPa | 8.89 mm | - | 4 W/m² | - |
| 1777419078 | 19.44° C | 99% | 1051.6 hPa | 10.67 mm | - | 3 W/m² | - |
* Rain latest hour (hover to see other rain measurements)
** Current wind speed in m/s (hover to see current wind gust speed)